Location: River House Observatory
(37.8577°N, 76.3548°W)
Time: 23:09:54
(UTC-04:00)

NOSS 3-1 (C) - Visible Passes

Search period start: 04 May 2015 00:00
Search period end: 14 May 2015 00:00
Orbit: 879 x 1330 km, 63.4° (Epoch: 04 May)

Date Brightness Start Highest point End Pass type
(mag) Time Alt. Az. Time Alt. Az. Time Alt. Az.
04 May 5.5 00:39:32 18° ENE 00:39:32 18° ENE 00:41:22 10° NE visible
04 May 4.2 02:26:55 44° NW 02:26:55 44° NW 02:32:51 10° NNE visible
04 May 5.8 04:17:13 10° NW 04:19:33 12° NNW 04:21:43 10° N visible
05 May 4.1 01:42:45 52° N 01:42:45 52° N 01:47:43 10° NNE visible
05 May 5.6 03:30:07 12° WNW 03:33:29 16° NNW 03:37:26 10° N visible
06 May 4.6 00:58:33 37° NE 00:58:33 37° NE 01:02:24 10° NE visible
06 May 5.1 02:45:55 21° WNW 02:47:35 24° NW 02:52:43 10° NNE visible
07 May 5.1 00:14:17 23° ENE 00:14:17 23° ENE 00:16:49 10° NE visible
07 May 4.5 02:01:39 35° NW 02:01:52 35° NW 02:07:49 10° NNE visible
07 May 5.6 23:29:59 13° ENE 23:29:59 13° ENE 23:30:47 10° ENE visible
08 May 4.1 01:17:21 50° NNW 01:17:21 50° NNW 01:22:46 10° NNE visible
08 May 5.8 03:05:51 10° WNW 03:09:01 14° NNW 03:12:05 10° N visible
09 May 4.2 00:32:59 48° NNE 00:32:59 48° NNE 00:37:34 10° NNE visible
09 May 5.5 02:20:20 15° WNW 02:23:01 19° NW 02:27:33 10° N visible
09 May 4.6 23:48:32 33° ENE 23:48:32 33° ENE 23:52:09 10° NE visible
10 May 4.9 01:35:53 26° WNW 01:37:12 28° NW 01:42:45 10° NNE visible
10 May 5.0 23:04:00 20° ENE 23:04:00 20° ENE 23:06:24 10° NE visible
11 May 4.3 00:51:21 43° NW 00:51:34 43° NW 00:57:47 10° NNE visible
11 May 6.1 02:42:29 10° NW 02:44:35 11° NNW 02:46:31 10° N visible
11 May 5.5 22:19:22 12° ENE 22:19:22 12° ENE 22:19:58 10° ENE visible
12 May 3.7 00:06:42 66° NNW 00:06:42 66° NNW 00:12:40 10° NNE visible
12 May 5.9 01:54:42 10° WNW 01:58:30 16° NNW 02:02:19 10° N visible
12 May 3.6 23:21:55 61° ENE 23:21:55 61° ENE 23:27:22 10° NE visible
13 May 5.5 01:09:14 15° WNW 01:12:35 23° NW 01:17:37 10° NNE visible
13 May 4.0 22:36:56 38° E 22:36:56 38° E 22:41:49 10° NE visible
